Wind_Speed
32 33 34 38 40 40 44 48 49 46 41 38 38 38 35 28 24 26 27 27 27 25 24 23 21 19 16 15 14 13 12 13 12 12 13 13 14 19 24 23 22 23 24 22 18 14 14 15 15 15 16 17 16 15 14 13 13 13 13 13 12 11 11
32 32 33 36 38 40 43 46 46 44 40 38 37 36 36 36 34 32 30 29 28 27 25 24 21 18 16 16 16 15 14 14 14 13 14 16 18 21 22 23 25 25 23 22 18 13 13 16 16 15 16 17 17 17 16 16 15 15 15 15 14 13 12
27 27 29 34 37 37 40 44 44 41 37 37 37 34 32 36 41 40 34 31 31 30 28 26 23 21 21 20 18 16 14 15 16 16 16 18 22 24 22 21 23 20 15 16 16 15 17 19 18 16 16 17 18 18 18 18 18 18 16 15 15 14 14
24 24 27 34 37 35 37 42 44 41 37 34 35 33 30 32 39 42 40 37 35 33 32 31 29 27 25 23 19 15 15 17 18 18 19 21 23 24 20 17 17 14 12 14 16 17 19 21 21 19 17 18 19 19 18 18 19 20 19 17 16 16 16
24 24 28 34 36 34 36 41 44 43 40 35 34 34 32 31 33 36 39 40 39 38 36 35 33 30 25 21 17 16 17 18 19 20 22 22 22 20 15 13 13 12 13 14 15 17 17 18 20 20 17 16 17 19 19 19 20 22 23 21 20 20 20
26 27 30 34 34 34 38 43 44 43 40 38 36 36 35 33 32 32 34 36 37 39 39 38 37 33 26 21 20 21 21 21 20 20 21 21 19 16 13 12 13 15 15 14 14 16 15 16 18 19 17 17 18 20 21 22 22 22 24 25 24 23 22
31 30 35 39 37 37 41 44 44 41 38 38 38 38 37 36 35 32 31 33 34 36 37 38 37 33 26 23 23 22 22 23 23 22 21 20 18 16 15 14 14 16 17 16 15 15 15 15 16 18 19 20 20 19 20 24 24 22 23 26 25 22 19
34 32 38 44 41 40 43 45 46 43 39 39 40 40 38 38 37 34 32 33 34 34 34 34 33 28 24 24 25 24 25 27 28 27 25 23 20 16 15 16 16 17 18 19 18 17 17 17 18 19 19 20 20 18 17 20 21 21 22 24 22 20 19
35 33 38 44 44 42 43 44 46 45 43 41 41 41 40 39 39 37 34 33 33 31 31 31 29 25 22 24 26 25 24 24 26 28 26 25 24 20 17 18 19 19 20 20 20 20 20 19 20 20 18 18 18 17 15 13 13 17 21 23 22 21 21
35 36 39 44 46 45 43 44 45 45 45 44 42 42 42 41 40 39 36 34 33 31 29 29 27 24 22 23 25 24 22 21 21 22 23 24 24 23 21 21 22 22 22 22 20 21 21 20 21 21 18 16 16 14 12 10 10 13 17 20 22 23 23
34 37 40 44 47 46 43 44 46 44 43 45 45 44 44 43 42 40 38 37 35 33 31 28 26 25 23 23 25 25 25 25 23 21 21 22 23 24 24 24 24 24 24 23 22 21 22 22 23 23 20 18 17 14 10 8 9 11 12 14 16 20 23
34 36 39 43 46 47 45 44 45 43 41 44 47 46 45 46 45 42 42 41 37 35 33 31 29 28 27 26 27 27 26 25 26 25 23 22 23 24 25 24 24 25 25 25 24 23 23 23 23 23 22 21 20 17 12 9 10 12 12 10 9 12 19
35 35 38 41 44 47 47 44 44 44 42 42 46 46 46 47 46 43 43 43 39 36 33 31 31 31 31 30 29 27 26 25 25 26 26 25 24 24 24 24 25 26 27 27 26 26 24 22 22 23 22 22 22 20 16 12 12 14 14 11 8 8 12
36 36 36 38 43 48 49 46 43 44 43 42 43 45 46 48 47 45 44 43 42 39 35 31 32 33 33 32 30 27 25 23 23 24 25 25 24 24 24 25 26 26 27 28 27 26 26 24 24 24 23 23 22 22 20 17 16 16 15 13 12 10 9
37 38 36 36 38 42 46 47 44 43 44 45 45 44 45 47 48 47 46 45 43 43 40 36 34 34 34 32 30 29 27 25 22 22 23 24 24 24 24 25 27 28 28 29 28 27 26 26 25 24 24 23 22 22 22 20 18 16 14 13 13 12 10
36 36 36 35 34 35 37 42 46 46 45 45 45 45 45 45 47 49 48 47 45 45 46 40 33 32 35 35 31 29 29 29 26 24 23 23 24 24 25 26 28 29 30 30 29 28 27 27 26 25 24 23 22 23 24 22 19 16 14 12 12 12 11
39 36 34 33 32 31 30 33 39 44 47 47 45 46 46 46 47 49 49 48 46 46 46 40 30 26 30 33 33 32 29 28 28 27 24 23 24 26 28 28 29 30 32 32 32 31 30 29 28 27 26 25 22 22 23 22 20 18 16 14 13 12 12
38 36 35 33 30 29 29 30 32 36 44 50 49 46 46 45 45 47 47 48 48 47 46 43 37 32 29 28 31 33 32 29 27 27 25 23 23 25 28 29 30 31 33 33 33 33 32 31 30 30 30 29 27 25 25 25 24 23 21 20 18 16 15
38 35 34 32 31 30 30 31 32 33 37 44 47 46 46 45 45 45 45 46 46 46 46 45 44 42 39 35 32 33 33 31 29 28 27 26 24 24 26 29 31 32 33 34 34 34 34 33 32 32 31 30 30 29 29 29 28 27 26 25 23 22 21
40 38 36 34 34 33 31 29 31 33 34 37 40 42 45 46 46 46 47 48 49 49 48 48 48 47 46 43 41 38 36 35 32 30 29 29 28 27 27 28 30 32 34 34 34 34 34 34 34 33 32 32 31 30 29 28 27 28 28 28 27 26 25
37 38 39 38 37 36 35 32 32 33 35 36 38 39 42 43 42 42 45 47 49 51 52 51 50 49 48 47 46 45 42 40 38 36 33 32 31 31 29 28 29 32 34 35 35 35 35 35 35 35 34 34 33 33 32 31 30 30 30 31 30 29 28
35 35 37 39 40 39 37 35 34 35 37 39 39 40 41 41 40 41 43 44 45 47 50 52 50 47 46 44 43 44 45 43 41 40 39 38 35 33 31 30 30 31 32 34 35 36 36 37 37 37 36 35 35 35 34 34 33 32 32 31 31 30 30
33 34 35 37 40 41 39 36 35 37 40 42 42 42 43 42 40 41 41 41 42 44 47 49 50 49 47 43 38 37 41 44 42 41 41 41 40 37 35 33 33 33 34 34 34 35 36 38 39 39 38 38 37 37 36 36 36 35 34 33 33 33 32
29 30 32 34 37 38 39 38 37 38 41 43 44 45 45 44 42 43 41 37 38 41 44 45 46 47 48 46 40 34 34 36 38 39 38 38 40 40 40 38 37 37 37 36 36 36 37 38 39 39 40 39 39 39 39 39 38 37 37 36 35 35 35
26 27 28 31 33 35 36 37 38 39 40 42 44 45 46 45 44 47 47 41 37 37 39 42 44 44 45 46 45 42 38 35 36 37 36 35 35 38 40 40 40 40 40 39 39 39 39 40 40 40 40 41 41 41 41 41 40 40 40 39 38 38 37
24 26 27 28 30 32 33 34 36 37 38 40 42 43 45 45 46 48 49 48 44 40 38 39 41 42 43 44 45 46 43 39 36 37 37 36 36 37 39 40 41 41 41 41 40 40 40 40 41 42 42 42 42 42 43 43 43 42 42 41 40 40 39
21 24 26 27 29 30 31 33 34 34 36 38 39 39 40 42 44 46 48 49 50 49 46 43 42 43 44 44 43 42 41 37 34 33 35 37 37 38 40 41 42 42 42 42 42 41 41 41 41 42 43 44 44 44 44 44 44 44 44 43 42 42 41
19 21 24 25 27 28 30 31 32 33 34 36 37 38 38 38 38 40 42 43 45 48 49 48 47 46 45 45 44 42 40 37 34 32 34 36 37 39 41 43 44 44 44 44 44 44 44 43 43 43 43 44 44 45 45 46 46 46 45 44 43 43 42
19 21 22 24 25 27 29 30 31 31 32 34 35 37 38 38 37 37 37 37 38 40 43 45 46 47 47 46 45 43 41 40 38 36 36 38 39 41 42 44 45 46 47 47 47 46 46 46 45 45 45 45 45 45 45 45 46 46 46 45 44 43 43
21 22 23 24 26 27 29 30 31 32 32 33 35 36 37 37 38 37 37 37 36 37 38 39 41 43 46 46 46 46 45 44 43 42 41 41 41 43 44 45 46 47 47 48 48 48 48 47 47 46 46 46 46 45 45 45 45 46 46 46 45 44 43
24 24 25 26 27 28 29 31 31 32 32 33 34 35 36 37 37 37 36 36 36 36 37 39 39 40 42 44 46 48 48 48 47 46 44 42 42 43 44 46 46 46 47 47 48 48 48 48 48 47 47 47 46 46 46 45 45 45 45 46 45 45 44
24 25 26 27 28 29 31 31 32 32 33 33 33 33 34 36 38 38 38 37 36 35 36 38 38 38 38 40 42 45 49 51 51 49 47 44 43 43 43 45 47 48 48 48 48 48 48 48 48 48 47 47 47 47 47 46 46 46 46 46 46 46 46
25 26 28 29 31 31 32 32 32 32 33 34 34 34 34 34 35 38 40 41 40 39 38 37 38 38 38 39 40 42 45 48 49 49 49 48 48 47 45 45 46 47 48 48 49 49 49 49 49 49 48 48 48 48 49 49 49 49 48 48 48 47 47
27 28 29 31 32 33 34 34 34 34 33 34 35 36 36 36 36 37 38 40 41 42 42 41 40 40 40 40 40 40 41 43 44 45 46 47 48 48 48 47 47 47 48 48 49 50 50 50 50 50 50 50 50 50 50 50 50 50 50 50 50 50 50
28 28 29 30 31 33 35 35 36 35 35 34 35 36 37 38 37 38 38 39 40 41 41 41 41 41 41 41 41 41 41 41 42 43 43 44 44 44 45 46 47 48 49 49 49 49 50 51 51 51 51 51 51 51 51 52 52 52 52 52 52 52 52
28 28 28 29 30 32 34 35 36 36 36 35 35 36 37 38 38 38 38 39 40 40 40 40 40 40 40 40 41 42 42 43 43 43 42 42 42 42 42 43 44 46 48 49 49 50 51 52 52 53 53 52 52 52 52 52 53 53 53 54 54 54 54
27 27 27 28 29 31 33 35 36 36 36 36 36 36 37 38 40 40 40 39 40 41 41 41 41 41 40 40 40 40 41 42 43 44 45 44 44 44 44 43 44 45 46 47 48 49 50 51 52 52 53 54 54 54 53 53 54 54 54 55 55 55 55
Wind_Direction
195 196 192 196 197 191 188 190 193 194 197 203 205 210 214 210 210 218 216 215 219 218 214 214 219 219 218 218 210 207 210 207 205 201 195 196 200 208 210 205 202 207 206 203 203 196 188 195 201 201 205 210 208 207 211 211 209 208 205 201 201 203 209
198 197 191 193 196 193 190 191 192 194 197 201 202 207 213 210 211 219 220 217 219 219 218 218 217 215 217 215 210 211 210 208 207 201 199 201 205 213 212 205 208 212 210 208 207 202 198 201 206 209 211 216 217 216 218 218 215 214 213 209 203 199 202
195 195 192 195 198 195 191 190 190 191 195 199 200 203 208 210 213 218 220 220 220 219 220 221 218 214 212 206 203 209 211 211 210 206 207 209 211 218 219 216 217 217 214 215 216 215 212 207 206 208 210 216 222 223 222 221 218 215 215 215 211 205 203
194 190 190 196 201 199 192 190 190 190 192 195 196 199 203 208 214 217 218 219 220 221 224 225 223 223 222 213 200 199 207 213 215 211 212 216 220 224 226 226 226 218 208 211 215 219 219 214 210 208 207 213 223 226 223 221 222 218 215 214 214 213 208
194 188 186 192 200 200 193 191 192 193 195 195 193 195 199 201 209 215 217 219 221 223 226 227 227 230 235 232 214 202 204 210 214 214 214 219 227 231 230 226 226 220 214 213 214 220 223 219 216 216 214 215 223 229 225 223 224 221 217 214 213 214 211
187 184 182 186 194 196 191 190 192 193 198 200 194 193 197 200 205 211 213 218 222 223 225 228 231 234 239 237 224 213 211 209 209 213 216 220 228 232 228 222 224 222 220 218 216 217 222 222 219 220 218 216 222 229 229 228 223 219 221 220 218 218 214
185 181 180 183 188 193 192 192 192 191 194 199 195 194 199 202 205 208 209 213 219 221 222 226 231 236 235 226 220 219 220 218 215 215 218 222 229 230 224 219 220 220 219 219 216 214 218 220 217 217 216 217 222 226 231 232 224 217 222 224 222 225 222
187 181 180 184 187 191 193 193 194 192 192 196 197 198 201 203 205 208 207 210 215 218 219 220 225 230 226 221 225 230 230 228 224 222 222 225 228 226 221 216 215 216 217 217 216 218 220 218 217 219 219 219 223 225 230 234 227 219 225 229 226 228 228
188 184 185 187 189 192 193 193 195 195 194 196 199 202 203 203 206 208 208 210 213 217 218 218 222 224 219 217 222 225 225 225 224 223 225 226 225 220 215 214 213 214 215 216 218 224 226 223 222 225 225 220 221 224 226 228 226 224 228 230 226 224 223
187 188 189 190 192 194 194 194 196 197 197 197 201 205 206 205 207 208 209 210 213 216 217 219 223 225 220 214 213 216 221 223 221 219 222 225 223 217 210 210 213 215 217 217 218 225 230 229 227 228 229 226 221 223 219 212 219 231 231 229 225 222 222
188 188 192 193 194 194 195 197 198 198 198 198 202 207 208 207 209 210 211 212 214 218 218 218 222 224 220 215 215 222 229 229 225 222 219 221 221 216 211 211 215 219 222 221 220 225 231 233 232 230 231 233 232 232 225 208 219 238 241 237 230 225 225
193 190 194 196 197 196 197 200 200 199 198 198 202 207 209 209 210 212 214 213 215 220 221 218 219 221 220 218 220 227 231 231 231 229 226 225 223 220 216 215 217 220 225 226 225 227 231 234 237 235 233 234 234 234 232 221 221 232 238 242 241 233 230
193 193 195 199 200 200 200 202 203 200 198 198 201 206 208 209 210 213 214 215 215 219 222 221 219 221 223 222 223 229 233 234 234 233 232 230 228 225 221 217 216 219 224 227 228 228 230 231 235 237 236 236 236 235 236 230 223 227 229 231 239 243 238
185 189 193 198 201 203 204 205 204 200 198 198 201 205 208 208 210 213 214 215 216 217 219 223 222 221 223 224 225 227 230 232 233 233 233 231 228 226 222 218 216 218 223 228 229 230 232 232 234 237 236 236 238 238 236 229 223 226 227 226 231 241 247
183 186 190 195 200 205 206 207 207 203 200 201 203 206 208 208 209 213 214 215 216 217 218 222 226 224 222 222 224 225 228 234 238 236 232 231 229 226 223 219 217 217 220 226 229 230 232 234 237 239 239 236 235 234 232 227 223 225 226 224 228 235 243
189 188 190 193 200 206 208 209 210 208 205 205 207 210 211 209 209 212 215 216 217 218 220 225 232 231 226 224 225 227 231 236 240 240 236 231 228 225 222 219 217 216 218 222 227 229 230 232 234 235 237 236 232 228 226 228 230 231 232 230 228 229 233
193 192 193 194 198 205 205 205 208 209 211 213 213 214 216 215 213 214 216 217 218 218 220 224 228 224 221 222 224 227 229 231 234 237 236 233 227 223 222 220 217 217 217 219 224 228 230 231 231 232 232 232 230 223 220 226 234 237 239 238 234 230 230
199 192 189 189 194 201 203 203 203 206 212 216 217 218 220 219 218 218 218 219 220 221 222 224 227 228 227 224 224 226 229 231 233 234 235 234 230 225 224 222 220 218 218 220 223 227 230 231 231 231 232 232 231 229 228 233 239 242 244 244 242 239 236
216 209 200 198 202 206 206 206 206 207 211 215 218 222 226 226 225 224 223 222 223 225 226 227 230 236 240 240 236 235 235 236 238 240 239 237 233 227 224 224 223 221 220 222 224 227 230 231 232 233 233 233 233 235 239 241 241 240 241 244 246 246 245
227 228 227 227 228 226 224 222 220 218 218 220 223 227 231 233 234 234 233 233 232 233 235 235 236 239 243 245 244 243 241 240 241 244 243 239 235 232 227 225 225 224 223 223 225 227 229 231 233 235 235 235 236 238 240 239 237 237 241 245 249 250 249
229 232 235 238 239 238 237 234 229 226 227 228 229 230 231 234 236 238 238 239 239 240 240 240 240 241 243 245 245 243 242 241 241 243 243 241 239 237 232 228 227 227 226 226 227 228 230 232 233 235 236 238 240 241 241 240 240 243 247 250 251 251 251
229 230 232 236 239 239 238 235 230 228 228 230 229 228 229 232 235 238 238 238 239 241 242 241 241 242 243 244 245 243 239 238 240 241 241 241 241 241 238 234 231 230 230 229 229 230 231 232 234 235 237 238 240 242 243 244 245 246 247 250 252 252 252
225 225 227 231 235 236 236 234 229 225 225 227 227 226 227 231 235 237 237 235 234 235 238 240 242 242 242 244 247 244 238 236 237 238 238 239 241 244 244 241 237 235 234 233 232 232 232 234 235 237 237 238 240 241 243 245 246 246 246 248 250 251 252
226 225 225 227 231 233 233 231 228 225 224 227 229 228 228 231 234 236 236 236 235 235 236 239 241 241 240 241 241 239 237 237 235 234 237 241 243 244 245 244 242 240 239 238 236 235 234 235 236 238 239 239 240 241 242 244 245 246 246 247 248 250 251
230 229 228 227 229 231 231 229 227 226 226 228 231 233 232 232 233 235 237 238 238 238 238 239 240 240 240 240 239 240 244 246 241 238 241 244 244 243 242 242 241 241 241 240 239 238 236 236 237 238 239 240 240 241 242 243 245 245 246 248 249 250 251
234 234 233 232 231 231 231 230 229 227 227 229 232 234 235 234 233 234 236 238 238 238 238 239 239 240 241 243 243 243 245 246 246 244 242 241 239 239 238 238 238 238 239 240 240 240 239 238 238 238 239 239 240 241 242 244 245 246 246 247 249 250 251
239 237 236 235 234 233 233 233 232 229 227 228 230 232 234 235 235 235 236 238 239 240 242 243 242 241 241 241 241 241 241 243 243 242 238 236 235 235 235 235 236 236 237 237 238 239 239 239 239 239 239 239 240 240 242 243 245 246 246 246 247 248 250
244 243 241 238 236 236 236 236 236 233 230 229 230 231 232 233 235 234 234 236 238 239 241 242 242 241 240 239 239 239 239 238 236 232 230 230 232 233 235 235 236 237 237 236 237 238 238 238 238 239 240 240 240 240 241 242 244 246 247 247 247 247 247
249 247 246 243 240 239 238 238 238 237 236 234 234 235 235 236 237 238 237 237 237 238 240 241 240 240 239 238 237 237 237 236 233 231 229 228 229 232 234 236 237 238 238 238 237 238 238 239 239 239 240 241 242 242 242 242 243 245 246 248 248 248 247
254 252 250 247 244 242 241 240 239 239 238 238 237 238 239 238 239 240 241 241 240 238 238 239 240 239 239 238 236 236 237 236 236 235 234 232 231 231 233 236 237 238 239 239 239 239 240 241 241 242 242 242 243 244 244 244 244 245 246 247 249 249 249
257 255 254 252 249 246 244 243 242 242 241 241 240 240 240 239 238 238 238 239 241 240 238 238 238 238 238 238 237 236 236 236 237 237 237 236 234 233 233 235 237 238 239 240 241 241 242 243 243 244 244 244 245 245 246 246 246 246 246 247 248 249 250
257 257 257 256 254 252 249 246 244 243 244 244 244 244 244 243 241 239 237 237 238 239 238 238 238 239 239 238 237 237 237 237 238 239 239 238 237 236 236 237 238 239 240 241 241 242 243 244 245 245 246 246 247 247 247 247 247 247 247 248 248 249 250
256 257 259 259 258 255 253 250 248 246 244 244 244 245 246 245 244 243 241 240 240 240 239 239 238 238 239 239 239 239 239 239 240 241 242 241 240 239 240 240 241 241 242 243 243 244 244 245 246 247 247 247 248 248 249 249 249 249 249 250 250 251 252
260 258 258 259 260 258 255 252 251 250 248 246 244 244 244 245 245 245 244 244 243 242 241 241 240 240 241 242 241 241 240 240 241 242 243 244 243 242 242 243 243 244 244 245 245 246 246 247 247 248 249 249 249 250 251 251 251 251 252 252 252 253 253
268 265 261 259 259 259 258 255 253 252 251 250 247 244 243 243 243 244 245 246 246 245 244 244 244 244 245 245 245 244 242 241 241 242 244 245 246 245 245 244 245 245 246 246 246 247 247 248 249 249 250 250 251 251 252 252 253 253 253 253 254 254 255
271 268 264 260 257 256 257 256 254 252 251 250 247 244 243 243 243 243 244 245 246 247 247 247 246 246 246 246 247 247 246 244 244 244 245 246 247 247 247 245 245 245 245 246 246 246 246 248 249 250 251 251 252 252 252 253 253 253 254 254 254 255 255
274 270 266 262 258 254 254 255 255 254 252 250 247 244 242 243 243 243 243 244 245 247 248 249 248 248 248 247 247 247 248 247 246 246 247 247 247 247 247 247 245 244 244 244 245 245 246 246 247 249 250 251 252 252 252 253 253 254 254 254 255 255 255
Height
5832 5836 5840 5843 5846 5850 5853 5855 5858 5861 5864 5866 5868 5871 5873 5877 5877 5875 5876 5878 5880 5883 5886 5888 5890 5892 5895 5897 5898 5900 5902 5904 5905 5907 5908 5909 5910 5910 5911 5915 5917 5915 5916 5920 5924 5928 5930 5931 5931 5932 5932 5933 5934 5935 5936 5937 5938 5940 5940 5941 5942 5943 5944
5829 5834 5838 5840 5843 5847 5851 5854 5857 5860 5861 5862 5865 5868 5871 5874 5874 5873 5873 5876 5878 5881 5884 5887 5889 5891 5893 5895 5897 5899 5901 5902 5904 5905 5906 5907 5908 5907 5909 5912 5912 5912 5916 5920 5924 5928 5931 5931 5930 5930 5931 5932 5933 5934 5935 5936 5937 5938 5939 5940 5940 5941 5942
5828 5832 5836 5839 5841 5845 5849 5853 5854 5857 5859 5860 5863 5865 5868 5870 5870 5870 5872 5874 5877 5880 5883 5886 5887 5889 5890 5891 5894 5897 5900 5901 5902 5903 5904 5905 5906 5906 5908 5911 5912 5915 5918 5920 5922 5926 5927 5927 5926 5927 5929 5930 5931 5932 5933 5934 5935 5936 5937 5938 5939 5939 5940
5826 5829 5832 5835 5839 5843 5848 5850 5852 5854 5856 5858 5861 5863 5865 5866 5867 5868 5870 5872 5874 5878 5881 5884 5885 5887 5887 5889 5892 5896 5899 5900 5900 5901 5902 5903 5903 5904 5908 5912 5914 5916 5917 5916 5918 5921 5922 5923 5924 5925 5926 5928 5929 5929 5931 5932 5933 5934 5935 5936 5937 5937 5937
5824 5827 5830 5833 5837 5841 5845 5848 5849 5852 5854 5855 5858 5861 5863 5863 5864 5865 5867 5869 5872 5875 5878 5880 5882 5885 5887 5890 5893 5895 5896 5897 5899 5900 5901 5902 5902 5904 5907 5911 5913 5914 5914 5915 5917 5919 5920 5921 5922 5923 5925 5927 5928 5928 5929 5929 5930 5932 5933 5933 5933 5933 5933
5821 5825 5828 5832 5836 5838 5841 5844 5846 5849 5851 5853 5856 5859 5860 5860 5861 5863 5865 5868 5870 5872 5875 5877 5879 5881 5885 5889 5891 5892 5893 5895 5897 5898 5900 5902 5903 5905 5908 5910 5912 5913 5913 5914 5915 5917 5918 5918 5920 5922 5925 5926 5926 5926 5926 5925 5926 5929 5930 5929 5929 5930 5932
5818 5822 5826 5829 5833 5835 5838 5841 5843 5845 5848 5851 5853 5855 5855 5856 5858 5860 5863 5865 5866 5869 5872 5875 5877 5880 5884 5888 5889 5890 5891 5893 5895 5896 5898 5900 5902 5904 5907 5908 5909 5910 5912 5913 5914 5916 5916 5917 5919 5921 5923 5924 5924 5924 5924 5922 5924 5927 5926 5926 5928 5932 5936
5817 5821 5823 5825 5828 5832 5835 5837 5839 5842 5845 5847 5849 5850 5852 5854 5855 5857 5860 5862 5863 5866 5869 5872 5875 5878 5882 5886 5887 5887 5889 5891 5893 5894 5896 5898 5900 5902 5904 5905 5907 5908 5909 5910 5912 5914 5915 5916 5918 5919 5920 5921 5921 5921 5922 5922 5924 5925 5924 5925 5929 5932 5936
5817 5819 5821 5823 5826 5828 5831 5833 5836 5838 5840 5842 5845 5847 5849 5851 5852 5854 5857 5859 5861 5864 5867 5870 5872 5875 5879 5883 5884 5885 5885 5888 5890 5892 5895 5896 5898 5900 5902 5903 5904 5906 5907 5908 5911 5912 5914 5915 5916 5917 5918 5919 5919 5919 5921 5923 5924 5923 5923 5925 5927 5929 5931
5814 5815 5818 5821 5822 5825 5828 5831 5832 5834 5836 5838 5841 5843 5845 5848 5849 5851 5854 5857 5859 5861 5864 5867 5869 5872 5876 5879 5881 5881 5883 5885 5888 5890 5893 5895 5897 5898 5899 5900 5901 5903 5904 5907 5909 5910 5911 5913 5915 5915 5916 5917 5918 5918 5920 5922 5922 5921 5921 5923 5925 5927 5928
5810 5813 5816 5818 5820 5823 5826 5827 5828 5831 5833 5835 5837 5839 5842 5844 5846 5848 5851 5854 5857 5859 5862 5865 5867 5870 5873 5875 5877 5878 5879 5882 5885 5887 5890 5892 5894 5896 5897 5898 5899 5900 5902 5904 5907 5908 5908 5909 5911 5913 5915 5916 5916 5917 5918 5919 5920 5920 5920 5921 5923 5925 5926
5809 5811 5814 5817 5819 5821 5822 5823 5826 5828 5830 5832 5834 5836 5838 5841 5844 5846 5847 5851 5855 5858 5860 5863 5865 5868 5870 5872 5874 5875 5876 5879 5882 5884 5887 5889 5892 5893 5894 5895 5897 5898 5899 5901 5904 5905 5906 5907 5909 5911 5913 5914 5914 5915 5916 5917 5918 5919 5919 5920 5922 5923 5924
5807 5809 5811 5814 5817 5819 5820 5821 5823 5824 5826 5829 5831 5833 5835 5838 5840 5842 5844 5848 5851 5855 5858 5860 5863 5865 5867 5870 5871 5872 5874 5876 5879 5881 5883 5886 5888 5890 5892 5893 5894 5895 5896 5898 5900 5902 5904 5906 5907 5909 5910 5912 5912 5914 5915 5917 5917 5918 5919 5920 5921 5921 5922
5802 5805 5808 5811 5814 5815 5817 5819 5820 5822 5825 5828 5828 5830 5832 5834 5837 5839 5842 5844 5848 5851 5854 5857 5859 5862 5864 5867 5869 5870 5872 5874 5876 5878 5880 5882 5885 5887 5889 5890 5892 5893 5894 5895 5897 5900 5902 5904 5905 5906 5908 5909 5909 5911 5913 5915 5916 5917 5919 5919 5920 5920 5920
5799 5801 5804 5809 5811 5813 5816 5818 5820 5822 5825 5825 5825 5826 5828 5831 5834 5836 5839 5841 5844 5847 5851 5853 5855 5858 5861 5864 5867 5869 5870 5872 5874 5875 5877 5879 5881 5884 5886 5887 5889 5890 5891 5892 5894 5897 5900 5901 5903 5904 5905 5906 5907 5908 5911 5913 5914 5915 5917 5917 5918 5918 5919
5797 5799 5802 5806 5809 5811 5815 5818 5819 5822 5823 5822 5822 5824 5826 5829 5832 5834 5836 5839 5842 5844 5848 5851 5854 5856 5859 5862 5865 5867 5868 5870 5871 5873 5874 5876 5877 5880 5882 5884 5886 5887 5888 5889 5891 5893 5896 5898 5900 5901 5902 5903 5905 5906 5909 5910 5912 5914 5915 5915 5916 5916 5918
5795 5798 5801 5805 5807 5810 5813 5815 5816 5820 5821 5820 5822 5824 5825 5828 5831 5832 5835 5837 5839 5842 5845 5848 5852 5853 5856 5859 5862 5864 5865 5867 5869 5870 5871 5873 5874 5876 5877 5879 5882 5884 5885 5887 5888 5890 5892 5895 5897 5898 5900 5901 5902 5904 5906 5908 5909 5911 5912 5913 5914 5915 5916
5793 5796 5799 5802 5805 5807 5809 5810 5813 5817 5817 5818 5820 5822 5824 5827 5829 5831 5833 5835 5837 5839 5841 5845 5848 5850 5852 5856 5859 5860 5862 5864 5866 5867 5868 5870 5871 5873 5874 5876 5878 5880 5882 5884 5886 5887 5889 5891 5893 5895 5896 5898 5900 5901 5903 5905 5906 5908 5909 5911 5911 5912 5914
5792 5794 5796 5798 5800 5802 5804 5806 5809 5812 5814 5816 5819 5821 5822 5824 5826 5828 5830 5832 5834 5836 5838 5841 5844 5846 5849 5852 5856 5858 5860 5861 5863 5864 5865 5867 5868 5870 5872 5873 5875 5877 5879 5881 5883 5885 5887 5888 5890 5892 5893 5895 5897 5898 5900 5902 5903 5905 5906 5908 5909 5910 5911
5790 5791 5793 5794 5794 5797 5800 5802 5805 5808 5811 5814 5817 5818 5819 5820 5822 5825 5828 5829 5831 5832 5834 5837 5840 5842 5845 5848 5851 5855 5857 5858 5860 5861 5862 5863 5865 5866 5868 5870 5872 5874 5876 5878 5880 5882 5884 5885 5887 5888 5890 5892 5893 5895 5897 5898 5899 5901 5903 5904 5905 5907 5908
5788 5789 5790 5790 5792 5795 5797 5799 5802 5805 5807 5811 5813 5813 5814 5816 5820 5822 5824 5825 5827 5828 5829 5832 5835 5838 5841 5843 5846 5849 5852 5854 5855 5857 5859 5860 5861 5862 5864 5867 5869 5870 5872 5874 5876 5878 5880 5881 5883 5884 5886 5888 5889 5891 5893 5894 5895 5897 5899 5900 5902 5903 5905
5785 5786 5787 5788 5790 5792 5795 5798 5800 5801 5803 5805 5808 5809 5809 5812 5816 5817 5819 5820 5822 5824 5825 5826 5829 5832 5835 5837 5840 5843 5846 5849 5851 5853 5854 5855 5857 5858 5861 5863 5865 5866 5868 5870 5872 5874 5875 5877 5878 5879 5881 5883 5885 5886 5887 5889 5891 5893 5895 5896 5897 5899 5901
5782 5783 5784 5785 5787 5789 5793 5796 5798 5798 5798 5799 5802 5804 5805 5808 5812 5814 5815 5815 5815 5817 5819 5820 5823 5826 5829 5832 5835 5836 5839 5843 5846 5847 5848 5850 5852 5854 5857 5859 5861 5862 5863 5866 5869 5870 5871 5872 5873 5875 5877 5879 5881 5882 5883 5885 5886 5888 5890 5892 5893 5895 5896
5779 5780 5781 5783 5784 5786 5789 5792 5793 5794 5794 5794 5797 5799 5800 5804 5808 5810 5811 5812 5810 5810 5812 5815 5818 5820 5823 5826 5829 5831 5834 5838 5841 5843 5843 5845 5847 5850 5852 5854 5855 5856 5858 5861 5864 5865 5866 5868 5869 5870 5872 5874 5876 5878 5879 5880 5882 5883 5885 5887 5889 5890 5892
5776 5777 5779 5780 5781 5783 5785 5787 5788 5789 5791 5792 5793 5793 5795 5800 5804 5804 5806 5809 5808 5807 5807 5809 5812 5814 5817 5820 5823 5826 5830 5833 5835 5837 5839 5840 5841 5844 5846 5848 5849 5850 5853 5855 5858 5859 5861 5863 5864 5866 5868 5870 5871 5873 5874 5875 5877 5879 5880 5882 5884 5886 5887
5773 5774 5776 5777 5778 5779 5781 5782 5783 5785 5787 5788 5788 5788 5790 5794 5797 5799 5801 5802 5803 5803 5802 5803 5806 5810 5813 5816 5819 5822 5825 5827 5829 5831 5833 5834 5836 5837 5839 5841 5843 5845 5847 5849 5852 5853 5855 5857 5859 5861 5863 5864 5866 5868 5869 5870 5872 5873 5875 5877 5879 5881 5882
5770 5771 5772 5773 5774 5775 5777 5778 5779 5781 5782 5782 5783 5784 5785 5787 5790 5793 5795 5796 5797 5798 5799 5801 5803 5805 5808 5812 5814 5817 5820 5821 5823 5825 5827 5829 5830 5831 5833 5834 5837 5840 5842 5844 5846 5847 5849 5852 5854 5856 5857 5859 5861 5862 5864 5866 5867 5868 5870 5872 5874 5875 5877
5768 5768 5768 5769 5770 5771 5772 5773 5774 5775 5777 5778 5779 5779 5780 5781 5784 5786 5788 5790 5791 5792 5794 5796 5798 5799 5802 5806 5808 5811 5813 5815 5817 5819 5821 5822 5824 5825 5827 5828 5830 5833 5836 5838 5840 5841 5843 5845 5847 5849 5851 5853 5855 5857 5859 5861 5862 5864 5865 5866 5868 5870 5871
5764 5764 5765 5766 5766 5767 5767 5768 5769 5770 5772 5773 5774 5774 5775 5777 5779 5781 5783 5785 5786 5787 5789 5790 5791 5793 5796 5799 5801 5804 5806 5808 5811 5813 5815 5816 5818 5819 5820 5822 5824 5827 5829 5831 5833 5835 5836 5838 5841 5843 5845 5847 5848 5850 5853 5855 5857 5858 5860 5861 5862 5864 5866
5761 5761 5761 5761 5762 5763 5763 5763 5764 5766 5767 5768 5768 5769 5771 5773 5775 5776 5778 5779 5781 5782 5784 5784 5785 5787 5790 5792 5795 5797 5798 5801 5803 5806 5808 5810 5812 5813 5814 5816 5818 5820 5823 5825 5827 5828 5830 5832 5834 5836 5839 5840 5842 5844 5846 5849 5851 5853 5854 5856 5857 5858 5860
5757 5757 5757 5757 5757 5758 5758 5759 5760 5761 5762 5763 5764 5765 5766 5768 5770 5771 5772 5774 5775 5776 5778 5779 5780 5782 5784 5786 5788 5790 5792 5794 5796 5799 5802 5804 5806 5807 5809 5810 5812 5814 5816 5818 5820 5822 5824 5826 5828 5830 5832 5834 5836 5838 5840 5842 5844 5846 5848 5849 5851 5852 5853
5752 5752 5752 5752 5752 5753 5753 5754 5755 5756 5757 5758 5759 5760 5761 5763 5764 5766 5767 5768 5769 5770 5772 5774 5775 5777 5779 5780 5782 5784 5786 5787 5790 5792 5795 5797 5799 5801 5803 5805 5807 5808 5809 5811 5813 5815 5817 5819 5821 5823 5825 5827 5829 5831 5833 5835 5837 5839 5840 5842 5844 5845 5847
5748 5748 5748 5748 5747 5748 5748 5749 5750 5751 5752 5753 5754 5756 5756 5757 5759 5760 5761 5762 5763 5764 5766 5768 5770 5771 5773 5774 5776 5778 5780 5782 5784 5785 5787 5789 5792 5795 5797 5799 5800 5801 5803 5804 5806 5809 5811 5812 5814 5816 5817 5819 5821 5823 5825 5827 5829 5831 5833 5835 5836 5838 5840
5744 5744 5743 5743 5742 5742 5743 5743 5744 5745 5747 5748 5749 5750 5751 5751 5753 5754 5754 5755 5757 5758 5760 5762 5764 5765 5766 5768 5770 5772 5774 5775 5776 5777 5779 5781 5784 5787 5790 5792 5793 5794 5796 5798 5800 5802 5803 5805 5806 5808 5810 5812 5814 5816 5818 5820 5822 5824 5826 5827 5829 5830 5832
5738 5738 5738 5738 5737 5736 5736 5737 5738 5739 5741 5742 5743 5744 5745 5746 5747 5748 5749 5750 5751 5752 5754 5756 5758 5759 5760 5762 5764 5765 5767 5769 5770 5771 5773 5775 5777 5780 5782 5784 5785 5787 5788 5791 5793 5794 5795 5797 5798 5800 5802 5804 5806 5808 5810 5812 5814 5816 5818 5819 5821 5822 5824
5732 5732 5732 5732 5732 5731 5731 5731 5732 5733 5734 5736 5736 5738 5739 5740 5741 5743 5744 5745 5746 5747 5748 5749 5751 5752 5754 5755 5756 5758 5760 5762 5764 5765 5767 5769 5771 5773 5774 5776 5777 5779 5781 5783 5784 5785 5787 5789 5790 5792 5794 5796 5798 5800 5802 5804 5806 5808 5810 5811 5813 5814 5816
5726 5726 5726 5726 5726 5726 5726 5725 5725 5726 5728 5729 5730 5731 5733 5734 5735 5737 5739 5740 5741 5742 5743 5743 5744 5746 5747 5749 5750 5751 5753 5755 5757 5759 5761 5763 5764 5765 5766 5768 5770 5772 5774 5775 5776 5777 5779 5781 5783 5785 5786 5788 5790 5792 5794 5796 5798 5800 5802 5803 5805 5806 5808